Location: Maiden
(35.5760°N, 81.2120°W)
Time: 12:26:03
(UTC-04:00)

SL-24 R/B - RUBIN 2 - Pass Details

Date: 14 June 2018
Orbit: 603 x 993 km, 64.6° (Epoch: 20 June)

Event Time Altitude Azimuth Distance (km) Brightness Sun altitude
Rises 21:34:30 0° 201° (SSW) 3,375 7.2 -9.7°
Reaches altitude 10° 21:37:05 10° 198° (SSW) 2,381 6.4 -10.1°
Maximum altitude 21:42:28 66° 118° (ESE) 812 3.9 -11.0°
Drops below altitude 10° 21:47:18 10° 36° (NE) 2,144 6.4 -11.8°
Sets 21:49:32 0° 34° (NNE) 3,013 7.2 -12.1°
